Location: Anjeux
(47.8815°N, 6.2076°E)
Time: 22:49:42
(UTC+00:00)

HuskySat-1 - Visible Passes

Search period start: 01 December 2021 00:00
Search period end: 11 December 2021 00:00
Orbit: 443 x 456 km, 51.6° (Epoch: 01 December)

Date Brightness Start Highest point End Pass type
(mag) Time Alt. Az. Time Alt. Az. Time Alt. Az.
01 Dec ? 17:20:09 10° S 17:22:44 19° SE 17:23:03 19° SE visible
01 Dec ? 18:56:15 10° WSW 18:56:39 13° WSW 18:56:39 13° WSW visible
02 Dec ? 16:43:00 10° S 16:45:04 15° SE 16:47:00 11° ESE visible
02 Dec ? 18:18:29 10° WSW 18:20:35 33° SW 18:20:35 33° SW visible
03 Dec ? 17:40:44 10° SW 17:44:15 57° SSE 17:44:26 55° SE visible
04 Dec ? 17:03:01 10° SW 17:06:27 45° SSE 17:08:13 24° E visible
04 Dec ? 18:40:23 10° W 18:41:48 22° W 18:41:48 22° W visible
05 Dec ? 16:25:21 10° SSW 16:28:38 35° SE 16:31:56 10° ENE visible
05 Dec ? 18:02:27 10° W 18:05:31 55° WNW 18:05:31 55° WNW visible
06 Dec ? 17:24:31 10° WSW 17:28:05 73° NNW 17:29:10 42° NE visible
06 Dec ? 19:02:25 10° WNW 19:02:44 12° WNW 19:02:44 12° WNW visible
07 Dec ? 16:46:34 10° WSW 16:50:09 86° NNW 16:52:46 18° ENE visible
07 Dec ? 18:24:26 10° WNW 18:26:21 27° WNW 18:26:21 27° WNW visible
08 Dec ? 17:46:26 10° W 17:49:53 45° N 17:49:55 45° N visible
09 Dec ? 17:08:22 10° W 17:11:52 48° N 17:13:28 27° NE visible
09 Dec ? 18:46:12 10° WNW 18:47:02 16° WNW 18:47:02 16° WNW visible
10 Dec ? 16:30:18 10° W 16:33:48 52° NNW 16:37:00 12° ENE visible
10 Dec ? 18:08:11 10° WNW 18:10:34 34° NW 18:10:34 34° NW visible
